METEOSAT-11 (MSG-4)

Last updated on Oct. 27, 2021, 12:02 a.m. UTC

1 40732U 15034A   21299.33438519  .00000003  00000-0  00000-0 0  9991
2 40732   0.3918 112.0737 0001161  18.6970  24.4129  1.00266863 23032
UTC
Height (km)
Latitude
Longitude
Inclination
Orbital Period
UTC large
Height (km)
Speed (km/s)
/
Latitude / Longitude
Inclination (degrees)
Orbital Period (minutes)
Azimuth
Elevation
Range (km)
Doppler Factor
iOS Compass Heading
iOS Angle